Salisbury, MD

1:25 PM EST on January 18, 2018 (GMT -0500)
Salisbury-Ocean City Wicomico Regional

Weather History for KSBY - November, 2012

Change the Weather History Date:

Friday, November 2, 2012

  Actual Average Record
Temperature  
Mean Temperature 50 °F 52 °F  
Max Temperature 56 °F 63 °F 81 °F (1974)
Min Temperature 44 °F 41 °F 25 °F (1908)
Degree Days  
Heating Degree Days 15 13  
Month to date heating degree days 30 26  
Since 1 July heating degree days 224 339  
Cooling Degree Days 0 0  
Month to date cooling degree days 0 0  
Year to date cooling degree days 1732 1150  
Moisture  
Dew Point 33 °F    
Average Humidity 57    
Maximum Humidity 76    
Minimum Humidity 38    
Precipitation  
Precipitation 0.00 in 0.12 in 1.11 in (1999)
Month to date precipitation 0.00 0.24  
Year to date precipitation 39.53 38.78  
Snow  
Snow 0.00 in 0.00 in 0.00 in (2002)
Month to date snowfall 0.0 0.0  
Since 1 July snowfall 0.0 0.0  
Snow Depth 0.00 in    
Sea Level Pressure  
Sea Level Pressure 29.79 in    
Wind  
Wind Speed 10 mph (West)    
Max Wind Speed 23 mph    
Max Gust Speed 31 mph    
Visibility 10 miles    
Events      
T = Trace of Precipitation, MM = Missing Value Source: NWS Daily Summary

Daily Weather History Graph

Daily Weather History Graph

Search for Another Location

Airport or City:

Trip Planner

Search our weather history database for the weather conditions in past years. The results will help you decide how hot, cold, wet, or windy it might be!

Date:

Astronomy

Nov. 02, 2012 Rise Set
Actual Time 7:29 AM EDT 6:00 PM EDT
Civil Twilight 7:02 AM EDT 6:28 PM EDT
Nautical Twilight 6:31 AM EDT 6:59 PM EDT
Astronomical Twilight 6:00 AM EDT 7:30 PM EDT
Moon 8:47 PM EDT (11/2) 10:46 AM EDT (11/2)
Length of Visible Light 11h 25m
Length of Day
10h 30m
Waning Gibbous, 87% of the Moon is Illuminated
Nov 2
Waning Gibbous
Nov 6
Last Quarter
Nov 13
New
Nov 20
First Quarter
Nov 28
Full

Hourly Weather History & Observations

Time (EDT) Temp. Windchill Dew Point Humidity Pressure Visibility Wind Dir Wind Speed Gust Speed Precip Events Conditions
12:54 AM 50.0 °F - 37.0 °F 61% 29.75 in 10.0 mi West 6.9 mph - N/A   Overcast
1:54 AM 50.0 °F - 36.0 °F 59% 29.75 in 10.0 mi West 8.1 mph - N/A   Overcast
2:54 AM 50.0 °F - 36.0 °F 59% 29.75 in 10.0 mi West 6.9 mph - N/A   Overcast
3:54 AM 48.9 °F - 35.1 °F 59% 29.75 in 10.0 mi West 5.8 mph - N/A   Overcast
4:54 AM 48.0 °F - 35.1 °F 61% 29.75 in 10.0 mi WSW 9.2 mph 19.6 mph N/A   Clear
5:54 AM 44.1 °F 40.8 °F 35.1 °F 71% 29.75 in 10.0 mi WSW 5.8 mph - N/A   Clear
6:54 AM 45.0 °F 42.6 °F 36.0 °F 71% 29.75 in 10.0 mi West 4.6 mph - N/A   Overcast
7:54 AM 45.0 °F 42.6 °F 37.0 °F 74% 29.77 in 10.0 mi WSW 4.6 mph - N/A   Overcast
8:54 AM 48.9 °F - 36.0 °F 61% 29.78 in 10.0 mi WSW 5.8 mph - N/A   Overcast
9:54 AM 52.0 °F - 39.0 °F 61% 29.78 in 10.0 mi West 9.2 mph - N/A   Mostly Cloudy
10:54 AM 55.0 °F - 35.1 °F 47% 29.77 in 10.0 mi West 12.7 mph 19.6 mph N/A   Mostly Cloudy
11:54 AM 54.0 °F - 33.1 °F 45% 29.76 in 10.0 mi WNW 15.0 mph 21.9 mph N/A   Mostly Cloudy
12:54 PM 54.0 °F - 30.9 °F 41% 29.75 in 10.0 mi West 12.7 mph 23.0 mph N/A   Overcast
1:54 PM 55.0 °F - 32.0 °F 42% 29.74 in 10.0 mi West 13.8 mph 24.2 mph N/A   Mostly Cloudy
2:54 PM 54.0 °F - 32.0 °F 43% 29.75 in 10.0 mi West 11.5 mph 23.0 mph N/A   Overcast
3:54 PM 54.0 °F - 33.1 °F 45% 29.75 in 10.0 mi WNW 18.4 mph 25.3 mph N/A   Mostly Cloudy
4:54 PM 53.1 °F - 28.0 °F 38% 29.78 in 10.0 mi WNW 16.1 mph 26.5 mph N/A   Mostly Cloudy
5:54 PM 51.1 °F - 30.9 °F 46% 29.80 in 10.0 mi West 8.1 mph - N/A   Clear
6:54 PM 50.0 °F - 28.9 °F 44% 29.84 in 10.0 mi WNW 12.7 mph 19.6 mph N/A   Scattered Clouds
7:54 PM 50.0 °F - 30.0 °F 46% 29.86 in 10.0 mi WNW 10.4 mph 18.4 mph N/A   Mostly Cloudy
8:54 PM 48.9 °F - 30.9 °F 50% 29.88 in 10.0 mi West 9.2 mph - N/A   Clear
9:54 PM 48.0 °F - 30.9 °F 52% 29.88 in 10.0 mi West 8.1 mph - N/A   Partly Cloudy
10:54 PM 48.0 °F - 30.9 °F 52% 29.90 in 10.0 mi WNW 10.4 mph - N/A   Partly Cloudy
11:54 PM 48.0 °F - 30.9 °F 52% 29.91 in 10.0 mi WNW 9.2 mph - N/A   Clear